User: anonymous   Login
Location: Rounton
(54.4000°N, 1.3500°W)
Time: 15:50:03
(UTC+01:00)
Language:

FALCONSAT-6 - Orbit

View from above orbital plane
View from above orbital plane
View from above satellite
View from above satellite

Ground track
Ground track

The orbit data is extracted from the following two-line orbital elements,

1 43815U 18099BK  22183.78252682  .00000096  00000-0  12922-4 0  9999
2 43815  97.6448 252.1278 0021349 207.6484 152.3605 14.98584329195075
Epoch (UTC): 02 July 2022 18:46:50
Eccentricity: 0.0021349
inclination: 97.6448°
perigee height: 556 km
apogee height: 586 km
right ascension of ascending node: 252.1278°
argument of perigee: 207.6484°
revolutions per day: 14.98584329
mean anomaly at epoch: 152.3605°
orbit number at epoch: 19507

The dashed part of the orbit path shows where the satellite is in the earth's shadow,  

DLR